This is the latest recevied weather packets stored in our database for station/object KI7JYE. If no packets are shown the sender has not sent any weather packets the latest 10 day(s).
| Time | Temp. | Humidity | Pressure | Rain* | Wind** | Luminosity | Snow |
|---|---|---|---|---|---|---|---|
| 1777734925 | 11.11° C | 83% | 1015.3 hPa | 0 mm | - | 124 W/m² | - |
| 1777734622 | 11.11° C | 83% | 1015.3 hPa | 0 mm | - | 120 W/m² | - |
| 1777734320 | 11.11° C | 83% | 1015.2 hPa | 0 mm | - | 112 W/m² | - |
| 1777734016 | 11.11° C | 84% | 1015.3 hPa | 0 mm | - | 99 W/m² | - |
| 1777733712 | 10.56° C | 84% | 1015 hPa | 0 mm | - | 80 W/m² | - |
| 1777733409 | 10.56° C | 85% | 1014.8 hPa | 0 mm | - | 69 W/m² | - |
| 1777733105 | 10.56° C | 85% | 1014.7 hPa | 0 mm | - | 69 W/m² | - |
| 1777732802 | 10.56° C | 85% | 1014.7 hPa | 0 mm | - | 65 W/m² | - |
| 1777732499 | 10.56° C | 86% | 1014.5 hPa | 0 mm | - | 65 W/m² | - |
| 1777732197 | 10° C | 88% | 1014.7 hPa | 0 mm | - | 62 W/m² | - |
| 1777731894 | 10° C | 89% | 1014.7 hPa | 0 mm | - | 56 W/m² | - |
| 1777731590 | 9.44° C | 89% | 1015.1 hPa | 0 mm | - | 55 W/m² | - |
| 1777731288 | 9.44° C | 89% | 1014.9 hPa | 0 mm | - | 52 W/m² | - |
| 1777730985 | 8.89° C | 90% | 1015.3 hPa | 0 mm | - | 48 W/m² | - |
| 1777730683 | 8.89° C | 91% | 1015 hPa | 0 mm | - | 46 W/m² | - |
| 1777730379 | 8.89° C | 91% | 1015.1 hPa | 0 mm | - | 43 W/m² | - |
| 1777730075 | 8.89° C | 91% | 1015.2 hPa | 0 mm | - | 39 W/m² | - |
| 1777729772 | 8.89° C | 91% | 1015.3 hPa | 0 mm | - | 34 W/m² | - |
| 1777729469 | 8.89° C | 91% | 1015.4 hPa | 0 mm | - | 27 W/m² | - |
| 1777729166 | 8.89° C | 91% | 1015.2 hPa | 0 mm | - | 22 W/m² | - |
| 1777728862 | 8.89° C | 90% | 1015.3 hPa | 0 mm | - | 18 W/m² | - |
| 1777728560 | 8.89° C | 91% | 1015.2 hPa | 0 mm | - | 13 W/m² | - |
| 1777728256 | 8.89° C | 91% | 1015.1 hPa | 0 mm | - | 11 W/m² | - |
| 1777727954 | 8.89° C | 91% | 1015.1 hPa | 0 mm | - | 8 W/m² | - |
| 1777727650 | 8.33° C | 91% | 1015 hPa | 0 mm | - | 6 W/m² | - |
* Rain latest hour (hover to see other rain measurements)
** Current wind speed in m/s (hover to see current wind gust speed)